CAPE
2088 2345 2264 1841 1881 1888 963 1135 1905 1819 1782 867 1419 1927 1942 1830 1419 1753 1760 1722 1336 1195
3004 2599 2022 2073 2053 1773 2095 1168 1571 1566 1624 1581 1502 1914 1617 1315 1439 1776 1550 1449 1382 1089
3248 3163 2717 2659 2691 1935 1857 1800 1485 1707 2130 1728 1583 1778 1933 1617 1551 1607 1816 1234 1336 1116
2773 2980 3074 2789 2716 2851 1850 2562 1838 1887 1995 2022 1819 1872 1822 1695 1611 1475 1170 1278 1169 851
2696 2658 2888 2676 2789 2621 2542 2365 2407 2073 2323 2311 1842 2051 1841 1734 1461 1590 1568 1183 1104 824
2540 2591 2738 2838 2720 2834 2729 2778 2974 2506 2337 2542 2432 2289 2333 2001 1730 1737 1952 1655 1340 1052
2440 2484 2447 2596 2745 2729 3052 2804 3175 3055 2995 3163 2926 2570 2392 2255 2184 1974 1655 1796 1286 1241
2901 2736 3045 2424 3133 2790 2884 3286 3146 3282 3364 3303 3363 3224 3011 2556 2475 2162 1896 1887 1522 1366
2002 2792 3200 3115 2794 2853 2923 2785 3477 3483 3589 3602 3380 2932 2483 2864 2636 2509 2117 1718 1873 1421
2 30 1897 1622 1533 2636 2636 2947 3152 3197 3570 3757 3754 3240 2321 2146 2654 2570 2417 2131 2004 1699
0 263 94 102 0 0 1270 2611 3295 3394 3365 3318 3679 3527 3053 2125 2135 2514 2465 2338 2182 1735
0 85 651 339 1 0 2154 3410 3568 3603 3450 3582 3379 3405 3117 2620 2311 2075 2156 2220 2150 1784
2199 1790 1461 1658 2120 3030 3445 3489 3593 3445 3293 3599 3658 3662 3233 2450 2594 2222 1940 1828 1966 1278
1898 1709 1664 1375 1509 1332 1643 1555 2248 3683 3444 3299 3708 3585 3000 2174 2421 2536 1808 1380 958 534
CIN
-48 -26 -23 -16 -16 -6 -28 -29 -21 -33 -25 -66 -26 -3 -11 -13 -28 -8 -10 -15 -30 -30
-45 -46 -50 -37 -19 -12 -8 -24 -22 -45 -38 -20 -22 -6 -16 -25 -17 -2 -8 -10 -16 -34
-40 -45 -43 -29 -17 -22 -8 -11 -27 -5 -13 -19 -16 -1 -4 -12 -7 -2 -5 -7 -3 -15
-57 -55 -55 -37 -26 -17 -18 -6 -27 -9 -8 -12 -8 -3 -7 -10 -3 -11 -14 -3 -2 -25
-52 -51 -50 -64 -27 -30 -30 -17 -19 -34 -21 -11 -14 -4 -7 -13 -9 -3 -6 -20 -6 -39
-32 -35 -23 -36 -32 -23 -37 -26 -14 -27 -39 -22 -24 -13 -2 -17 -21 -8 -3 -8 -12 -31
-6 -12 -22 -8 -27 -9 -12 -38 -14 -20 -19 -6 -10 -18 -17 -30 -26 -20 -20 -9 -47 -58
-10 -2 -2 -4 -3 -15 -10 -9 -27 -17 -6 -4 -0 -0 -0 -14 -24 -32 -31 -7 -33 -46
-45 -43 -12 -5 -8 -2 -0 -6 -4 -6 -4 -2 -10 -33 -34 -16 -11 -7 -13 -15 -5 -22
-79 -132 -88 -166 -173 -34 -19 -8 -1 -2 -1 -1 -0 -6 -46 -46 -13 -8 -6 -7 -2 -12
-0 -385 -482 -416 -0 -0 -183 -9 -5 -4 -2 -4 -1 -3 -11 -37 -14 -6 -2 -3 -4 -16
-0 -371 -139 -188 -394 -0 -40 -10 -10 -3 -4 -1 -6 -9 -8 -17 -16 -18 -7 -4 -1 -17
-46 -76 -104 -72 -13 -5 -6 -12 -10 -9 -13 -6 -5 -6 -12 -25 -7 -19 -20 -10 -11 -81
-73 -60 -37 -52 -57 -80 -71 -93 -50 -2 -7 -7 -1 -2 -10 -58 -16 -5 -23 -92 -127 -224
Wind_Speed
21 18 14 13 13 15 13 18 17 19 22 25 27 22 16 13 12 11 8 8 8 11
15 16 14 14 14 15 14 14 16 18 20 21 21 19 14 12 13 7 8 9 8 8
11 11 14 14 14 12 18 10 9 17 16 14 16 15 8 10 9 6 7 6 6 7
11 10 10 16 13 11 16 9 11 16 17 16 18 14 11 15 8 8 6 5 6 6
10 10 9 12 16 16 14 18 8 11 14 16 19 19 19 19 16 7 6 7 6 6
5 5 9 10 17 13 14 18 14 11 14 16 17 19 19 17 18 15 11 8 5 4
3 3 4 6 9 14 12 16 19 19 19 18 17 16 15 13 12 13 13 9 8 6
14 18 13 10 9 8 23 21 21 19 19 18 17 15 14 13 11 10 9 7 5 5
15 24 30 28 26 28 35 28 14 18 16 16 16 15 16 11 10 9 8 8 6 6
8 13 17 21 27 31 36 38 31 17 15 15 14 14 15 15 11 10 10 10 10 9
6 8 9 12 22 32 37 42 39 18 14 15 14 15 16 15 16 16 15 15 14 14
9 8 12 14 14 4 20 11 10 12 15 15 15 15 17 18 18 19 20 19 19 18
5 8 10 10 10 6 7 14 22 26 22 21 20 18 19 20 21 23 22 21 19 19
10 12 14 14 15 18 22 27 28 28 28 27 26 27 24 22 22 20 19 18 18 17
Wind_Direction
174 172 159 153 153 152 133 153 140 141 154 170 187 167 139 132 137 129 92 96 94 17
165 170 167 165 161 165 167 138 141 139 149 159 166 160 143 139 143 92 99 101 75 57
165 165 173 168 163 149 175 82 83 145 140 138 152 152 131 139 136 108 97 79 70 47
168 165 165 177 164 151 160 113 111 138 147 145 154 150 148 164 132 141 120 83 48 48
162 162 160 167 173 167 161 166 121 133 146 152 165 165 167 174 171 134 131 131 120 89
168 165 167 165 176 164 166 172 161 152 157 163 166 170 172 172 181 177 163 153 143 118
253 231 179 175 173 175 171 174 177 179 179 175 174 175 174 174 176 181 183 174 167 166
300 289 294 291 287 184 190 185 186 184 186 185 185 185 184 185 187 191 195 197 204 196
291 288 274 273 274 269 245 207 191 193 193 195 195 196 199 201 205 212 218 226 252 252
279 265 292 288 283 271 262 256 220 210 212 213 217 221 219 218 233 242 244 247 249 251
297 308 293 298 302 299 282 247 242 223 235 237 241 238 237 243 249 253 257 256 250 249
305 303 318 322 325 298 227 247 241 277 280 273 274 263 253 254 265 263 261 264 259 255
331 332 335 343 343 331 319 310 299 296 294 292 288 282 272 269 277 274 271 268 259 247
317 317 317 323 320 317 311 307 304 302 299 296 296 295 291 285 279 271 272 264 263 265